FW4624 Weather Reports


time (UTC)temp
C
wind
direction
speed
KPH
gust
KPH
rain 1hr
cm
rain 24hr
cm
rain mn
cm
humidity
%
barometer
mb
20260905002050 15 340 0.0 1.6 0.00 0.23 0.03 92 1018.0
20260905001557 15 340 0.0 3.2 0.00 0.23 0.03 92 1017.8
20260905001050 15 340 1.6 4.8 0.00 0.23 0.03 92 1018.0
20260905000550 15 340 1.6 3.2 0.00 0.23 0.03 92 1018.0
20260905000049 15 340 0.0 0.0 0.00 0.23 0.03 92 1017.6
20260904235548 15 340 0.0 0.0 0.00 0.23 0.03 92 1017.5
20260904235051 15 340 0.0 1.6 0.00 0.23 0.03 92 1017.5
20260904234548 15 340 0.0 3.2 0.00 0.23 0.03 92 1017.6
20260904234047 15 340 0.0 3.2 0.00 0.23 0.03 92 1017.6
20260904233547 15 340 0.0 3.2 0.00 0.23 0.03 92 1017.5
20260904233048 15 340 0.0 3.2 0.00 0.23 0.03 92 1017.5
20260904232547 15 340 0.0 3.2 0.00 0.23 0.03 92 1017.3
20260904232047 15 340 0.0 0.0 0.03 0.23 0.03 92 1017.2
20260904231546 15 340 0.0 0.0 0.03 0.23 0.03 92 1017.2
20260904231046 15 340 0.0 0.0 0.03 0.23 0.03 92 1017.3
20260904230546 15 340 0.0 1.6 0.03 0.23 0.03 92 1017.2
20260904230046 15 340 0.0 1.6 0.03 0.23 0.03 92 1017.0
20260904225546 15 340 0.0 3.2 0.03 0.23 0.03 92 1017.4
20260904225048 15 340 0.0 3.2 0.03 0.23 0.03 92 1017.2
20260904224547 15 340 0.0 3.2 0.03 0.23 0.03 92 1017.1
20260904224045 15 340 0.0 3.2 0.03 0.23 0.03 92 1017.3
20260904223546 15 340 0.0 0.0 0.03 0.23 0.03 92 1017.5
20260904223044 15 340 0.0 0.0 0.03 0.23 0.03 92 1017.4
20260904222550 15 340 0.0 1.6 0.00 0.20 0.00 92 1017.4
20260904222047 15 340 0.0 3.2 0.00 0.20 0.00 91 1017.5
20260904221543 15 340 0.0 3.2 0.00 0.20 0.00 91 1017.5
20260904221042 15 340 0.0 3.2 0.00 0.20 0.00 91 1017.0
20260904220542 15 340 0.0 1.6 0.00 0.20 0.00 91 1017.0
20260904220042 15 340 0.0 0.0 0.03 0.20 0.00 91 1017.1
20260904215542 15 340 0.0 0.0 0.03 0.20 0.20 91 1016.8
20260904215044 15 340 0.0 0.0 0.05 0.20 0.20 91 1016.8
20260904214539 15 340 0.0 0.0 0.05 0.20 0.20 91 1016.9
20260904214039 15 340 0.0 4.8 0.08 0.20 0.20 90 1017.0
20260904213539 15 340 0.0 6.4 0.08 0.20 0.20 90 1017.1
20260904213039 15 340 1.6 6.4 0.08 0.20 0.20 90 1017.3
20260904212538 15 340 0.0 3.2 0.08 0.20 0.20 89 1017.2
20260904212038 16 340 0.0 1.6 0.08 0.20 0.20 89 1017.3
20260904211537 15 340 0.0 6.4 0.08 0.20 0.20 89 1017.0
20260904211037 15 340 1.6 9.7 0.08 0.20 0.20 89 1016.8
20260904210538 15 340 3.2 9.7 0.05 0.18 0.18 89 1016.8
20260904210037 16 339 3.2 12.9 0.05 0.18 0.18 89 1017.0
20260904205537 16 338 4.8 14.5 0.08 0.18 0.18 89 1017.2
20260904205036 16 342 3.2 14.5 0.08 0.15 0.15 88 1016.9
20260904204537 16 334 6.4 14.5 0.10 0.15 0.15 88 1016.7
20260904204036 16 339 4.8 22.5 0.10 0.13 0.13 88 1016.7
20260904203536 16 338 6.4 22.5 0.13 0.13 0.13 89 1016.6
20260904203036 16 323 3.2 19.3 0.13 0.13 0.13 89 1016.7
20260904202535 16 332 1.6 12.9 0.13 0.13 0.13 90 1016.5
20260904202037 16 337 1.6 4.8 0.13 0.13 0.13 90 1016.3
20260904201535 16 337 1.6 14.5 0.13 0.13 0.13 89 1016.0
20260904201035 15 337 3.2 20.9 0.13 0.13 0.13 89 1016.2
20260904200534 16 339 6.4 20.9 0.13 0.13 0.13 88 1016.2
20260904200033 16 347 4.8 24.1 0.13 0.13 0.13 88 1016.1
20260904195534 17 350 9.7 24.1 0.10 0.10 0.10 87 1016.4
20260904195031 18 346 4.8 20.9 0.05 0.05 0.05 88 1016.3
20260904194532 18 317 6.4 24.1 0.05 0.05 0.05 86 1015.8
20260904194030 18 312 4.8 30.6 0.03 0.03 0.03 83 1015.5
20260904193530 20 340 12.9 33.8 0.00 0.00 0.00 79 1015.4
20260904193030 20 331 12.9 33.8 0.00 0.00 0.00 76 1015.1
20260904192529 20 287 11.3 27.4 0.00 0.00 0.00 75 1015.0
20260904192029 21 277 8.0 27.4 0.00 0.00 0.00 74 1014.7
20260904191529 21 337 6.4 24.1 0.00 0.00 0.00 74 1014.5
20260904191029 21 333 8.0 30.6 0.00 0.00 0.00 73 1014.4
20260904190529 22 332 12.9 30.6 0.00 0.00 0.00 72 1014.0
20260904190028 22 227 12.9 29.0 0.00 0.00 0.00 70 1013.6
20260904185529 24 342 12.9 29.0 0.00 0.00 0.00 64 1013.5
20260904185028 25 265 4.8 12.9 0.00 0.00 0.00 56 1012.9
20260904184533 25 265 4.8 16.1 0.00 0.00 0.00 57 1012.7
20260904184028 25 259 3.2 17.7 0.00 0.00 0.00 57 1012.5
20260904183528 25 260 4.8 17.7 0.00 0.00 0.00 57 1012.6
20260904183027 25 259 6.4 16.1 0.00 0.00 0.00 57 1012.5
20260904182527 25 254 4.8 14.5 0.00 0.00 0.00 57 1012.3
20260904182028 25 250 3.2 20.9 0.00 0.00 0.00 57 1012.2
20260904181542 25 257 9.7 22.5 0.00 0.00 0.00 57 1012.1
20260904181028 25 276 9.7 22.5 0.00 0.00 0.00 57 1012.1
20260904180528 25 261 3.2 9.7 0.00 0.00 0.00 57 1012.1
20260904180027 26 259 3.2 11.3 0.00 0.00 0.00 57 1012.0
20260904175526 26 261 4.8 11.3 0.00 0.00 0.00 56 1012.1
20260904175026 26 261 3.2 14.5 0.00 0.00 0.00 56 1012.0
20260904174526 26 252 4.8 17.7 0.00 0.00 0.00 56 1012.0
20260904174026 26 260 4.8 17.7 0.00 0.00 0.00 55 1012.0
20260904173525 26 266 6.4 14.5 0.00 0.00 0.00 55 1012.0
20260904173028 26 259 6.4 24.1 0.00 0.00 0.00 54 1011.9
20260904172526 26 261 6.4 24.1 0.00 0.00 0.00 54 1012.1
20260904172029 27 262 8.0 19.3 0.00 0.00 0.00 54 1012.1
20260904171525 27 268 6.4 27.4 0.00 0.00 0.00 53 1012.1
20260904171029 27 262 11.3 27.4 0.00 0.00 0.00 53 1011.9
20260904170525 27 252 6.4 17.7 0.00 0.00 0.00 53 1012.0
20260904170025 27 266 6.4 17.7 0.00 0.00 0.00 52 1011.9
20260904165525 27 261 3.2 12.9 0.00 0.00 0.00 52 1012.0
20260904165025 27 261 4.8 16.1 0.00 0.00 0.00 52 1011.9
20260904164524 27 262 3.2 12.9 0.00 0.00 0.00 52 1011.9
20260904164025 27 270 4.8 17.7 0.00 0.00 0.00 52 1011.8
20260904163526 27 276 4.8 17.7 0.00 0.00 0.00 52 1011.9
20260904163024 27 262 4.8 12.9 0.00 0.00 0.00 52 1011.9
20260904162525 27 323 3.2 16.1 0.00 0.00 0.00 51 1011.8
20260904162023 27 250 4.8 32.2 0.00 0.00 0.00 51 1011.9
20260904161523 27 232 6.4 32.2 0.00 0.00 0.00 51 1011.9
20260904161023 27 269 4.8 24.1 0.00 0.00 0.00 50 1011.9
20260904160523 28 259 11.3 27.4 0.00 0.00 0.00 50 1011.9
20260904160023 28 257 16.1 32.2 0.00 0.00 0.00 50 1011.9
20260904155522 28 264 12.9 32.2 0.00 0.00 0.00 50 1012.0
20260904155022 28 261 8.0 35.4 0.00 0.00 0.00 49 1011.9
20260904154530 28 252 16.1 35.4 0.00 0.00 0.00 49 1011.9
20260904154025 28 267 8.0 20.9 0.00 0.00 0.00 49 1011.9
20260904153522 28 261 6.4 17.7 0.00 0.00 0.00 51 1011.9
20260904153022 28 260 4.8 17.7 0.00 0.00 0.00 50 1011.9
20260904152524 28 268 6.4 17.7 0.00 0.00 0.00 50 1012.0
20260904152021 28 259 3.2 25.7 0.00 0.00 0.00 51 1011.9
20260904151522 28 262 6.4 25.7 0.00 0.00 0.00 49 1012.0
20260904151021 28 270 8.0 24.1 0.00 0.00 0.00 49 1012.1
20260904150523 28 261 12.9 29.0 0.00 0.00 0.00 48 1012.0
20260904150021 28 272 8.0 24.1 0.00 0.00 0.00 48 1012.1
20260904145521 28 254 9.7 25.7 0.00 0.00 0.00 48 1012.0
20260904145021 29 273 9.7 27.4 0.00 0.00 0.00 48 1012.1
20260904144519 29 278 14.5 27.4 0.00 0.00 0.00 47 1012.1
20260904144022 29 289 6.4 24.1 0.00 0.00 0.00 49 1012.0
20260904143519 29 273 11.3 29.0 0.00 0.00 0.00 48 1011.9
20260904143030 29 271 16.1 35.4 0.00 0.00 0.00 48 1011.9
20260904142520 29 259 16.1 35.4 0.00 0.00 0.00 48 1012.0
20260904142023 29 269 17.7 33.8 0.00 0.00 0.00 48 1011.9
20260904141519 29 254 25.7 38.6 0.00 0.00 0.00 47 1011.9
20260904141018 29 241 16.1 38.6 0.00 0.00 0.00 46 1012.0
20260904140519 29 258 9.7 37.0 0.00 0.00 0.00 48 1011.9
20260904140033 28 266 17.7 32.2 0.00 0.00 0.00 48 1011.9
20260904135519 28 284 17.7 33.8 0.00 0.00 0.00 49 1011.9
20260904135019 28 266 14.5 33.8 0.00 0.00 0.00 48 1011.9
20260904134517 28 281 16.1 30.6 0.00 0.00 0.00 48 1011.9
20260904134017 28 252 19.3 30.6 0.00 0.00 0.00 50 1012.0
20260904133518 28 235 16.1 30.6 0.00 0.00 0.00 49 1012.0
20260904133016 28 257 19.3 30.6 0.00 0.00 0.00 49 1012.2
20260904132516 29 269 8.0 32.2 0.00 0.00 0.00 48 1012.2
20260904132016 29 250 20.9 37.0 0.00 0.00 0.00 48 1012.2
20260904131515 29 284 19.3 37.0 0.00 0.00 0.00 48 1012.3
20260904131015 29 257 14.5 30.6 0.00 0.00 0.00 49 1012.3
20260904130515 29 281 12.9 40.2 0.00 0.00 0.00 51 1012.4
20260904130014 29 248 24.1 40.2 0.00 0.00 0.00 48 1012.6
20260904125514 29 271 17.7 41.8 0.00 0.00 0.00 48 1012.4
20260904125014 30 246 22.5 41.8 0.00 0.00 0.00 49 1012.4
20260904124515 30 269 16.1 33.8 0.00 0.00 0.00 50 1012.5
20260904124011 30 237 14.5 37.0 0.00 0.00 0.00 49 1012.5
20260904123515 29 257 20.9 37.0 0.00 0.00 0.00 51 1012.5
20260904123010 29 226 16.1 32.2 0.00 0.00 0.00 51 1012.6
20260904122512 29 253 17.7 32.2 0.00 0.00 0.00 52 1012.7
20260904122009 29 254 19.3 35.4 0.00 0.00 0.00 51 1012.9
20260904121510 29 251 16.1 37.0 0.00 0.00 0.00 52 1012.9
20260904121009 29 257 17.7 38.6 0.00 0.00 0.00 51 1013.1
20260904120507 29 236 24.1 38.6 0.00 0.00 0.00 52 1013.1
20260904120006 29 246 19.3 32.2 0.00 0.00 0.00 51 1013.2
20260904115505 29 253 8.0 25.7 0.00 0.00 0.00 53 1013.2
20260904115004 28 248 8.0 25.7 0.00 0.00 0.00 52 1013.3
20260904114503 29 268 8.0 25.7 0.00 0.00 0.00 53 1013.5
20260904114002 28 248 11.3 35.4 0.00 0.00 0.00 56 1013.6
20260904113502 28 236 19.3 35.4 0.00 0.00 0.00 56 1013.5
20260904113101 28 257 11.3 32.2 0.00 0.00 0.00 55 1013.6
20260904112600 28 229 19.3 37.0 0.00 0.00 0.00 59 1013.7
20260904112058 27 251 19.3 37.0 0.00 0.00 0.00 59 1013.7
20260904111602 27 215 19.3 35.4 0.00 0.00 0.00 58 1013.9
20260904111059 27 241 14.5 30.6 0.00 0.00 0.00 59 1014.0
20260904110555 27 258 11.3 20.9 0.00 0.00 0.00 61 1014.0
20260904110057 26 261 11.3 32.2 0.00 0.00 0.00 61 1014.0
20260904105554 26 233 12.9 29.0 0.00 0.00 0.00 62 1014.1
20260904105057 26 250 16.1 29.0 0.00 0.00 0.00 63 1014.1
20260904104556 26 240 6.4 30.6 0.00 0.00 0.00 64 1014.2
20260904104050 25 248 11.3 30.6 0.00 0.00 0.00 64 1014.3
20260904103548 25 258 12.9 29.0 0.00 0.00 0.00 65 1014.4
20260904103047 25 256 17.7 29.0 0.00 0.00 0.00 65 1014.4
20260904102547 25 226 8.0 17.7 0.00 0.00 0.00 66 1014.2
20260904102046 25 226 8.0 20.9 0.00 0.00 0.00 67 1014.4
20260904101547 25 242 11.3 20.9 0.00 0.00 0.00 66 1014.3
20260904101049 25 271 8.0 17.7 0.00 0.00 0.00 67 1014.5
20260904100545 25 226 9.7 20.9 0.00 0.00 0.00 68 1014.5
20260904100044 24 229 11.3 22.5 0.00 0.00 0.00 68 1014.4
20260904095544 24 216 12.9 25.7 0.00 0.00 0.00 68 1014.4
20260904095044 24 233 16.1 25.7 0.00 0.00 0.00 68 1014.5
20260904094542 24 229 11.3 27.4 0.00 0.00 0.00 69 1014.5
20260904094042 24 205 17.7 27.4 0.00 0.00 0.00 68 1014.6
20260904093542 25 223 14.5 25.7 0.00 0.00 0.00 68 1014.8
20260904093045 24 188 16.1 27.4 0.00 0.00 0.00 68 1014.8
20260904092539 24 188 17.7 27.4 0.00 0.00 0.00 69 1014.8
20260904092038 24 220 16.1 29.0 0.00 0.00 0.00 69 1014.9
20260904091537 24 176 16.1 33.8 0.00 0.00 0.00 69 1015.0
20260904091037 24 240 19.3 37.0 0.00 0.00 0.00 69 1015.0
20260904090536 24 229 19.3 37.0 0.00 0.00 0.00 69 1015.0
20260904090034 24 231 16.1 27.4 0.00 0.00 0.00 71 1015.2
20260904085536 24 213 14.5 30.6 0.00 0.00 0.00 72 1015.2
20260904085031 23 252 17.7 30.6 0.00 0.00 0.00 73 1015.4
20260904084535 23 221 19.3 33.8 0.00 0.00 0.00 73 1015.6
20260904084027 23 198 17.7 29.0 0.00 0.00 0.00 72 1015.6
20260904083528 23 198 17.7 29.0 0.00 0.00 0.00 73 1015.7
20260904083024 23 252 16.1 29.0 0.00 0.00 0.00 73 1015.7
20260904082523 23 207 16.1 25.7 0.00 0.00 0.00 74 1015.8
20260904082023 23 191 16.1 25.7 0.00 0.00 0.00 74 1015.9
20260904081521 23 198 16.1 27.4 0.00 0.00 0.00 74 1016.0
20260904081020 22 201 14.5 25.7 0.00 0.00 0.00 75 1016.1
20260904080519 22 239 17.7 27.4 0.00 0.00 0.00 76 1016.2
20260904080019 22 221 12.9 22.5 0.00 0.00 0.00 78 1016.2
20260904075515 22 183 11.3 25.7 0.00 0.00 0.00 80 1016.3
20260904075014 21 192 14.5 25.7 0.00 0.00 0.00 80 1016.3
20260904074514 21 232 11.3 25.7 0.00 0.00 0.00 82 1016.2
20260904074011 20 209 11.3 25.7 0.00 0.00 0.00 82 1016.3
20260904073511 20 196 11.3 25.7 0.00 0.00 0.00 82 1016.3
20260904073012 20 187 9.7 20.9 0.00 0.00 0.00 82 1016.3
20260904072509 20 203 11.3 22.5 0.00 0.00 0.00 83 1016.4
20260904072009 20 234 12.9 22.5 0.00 0.00 0.00 83 1016.3
20260904071508 20 206 11.3 20.9 0.00 0.00 0.00 84 1016.4
20260904071007 20 187 9.7 19.3 0.00 0.00 0.00 84 1016.5
20260904070505 20 215 8.0 16.1 0.00 0.00 0.00 84 1016.6
20260904070014 20 194 6.4 16.1 0.00 0.00 0.00 85 1016.6
20260904065508 20 186 9.7 16.1 0.00 0.00 0.00 84 1016.7
20260904065006 20 250 11.3 16.1 0.00 0.00 0.00 85 1016.8
20260904064510 19 197 9.7 17.7 0.00 0.00 0.00 85 1016.8
20260904064003 19 242 11.3 17.7 0.00 0.00 0.00 85 1016.8
20260904063502 19 240 9.7 17.7 0.00 0.00 0.00 85 1016.9
20260904063005 19 232 6.4 19.3 0.00 0.00 0.00 85 1016.9
20260904062501 19 215 9.7 19.3 0.00 0.00 0.00 85 1016.9
20260904062001 19 248 9.7 19.3 0.00 0.00 0.00 85 1017.0
20260904061601 19 227 9.7 17.7 0.00 0.00 0.00 85 1017.0
20260904061100 19 241 9.7 17.7 0.00 0.00 0.00 86 1016.9
20260904060600 19 228 9.7 16.1 0.00 0.00 0.00 86 1016.9
20260904060100 19 242 9.7 20.9 0.00 0.00 0.00 86 1017.0
20260904055559 19 199 8.0 20.9 0.00 0.00 0.00 86 1017.0
20260904055057 18 211 8.0 14.5 0.00 0.00 0.00 87 1017.0
20260904054559 18 195 6.4 14.5 0.00 0.00 0.00 87 1017.0
20260904054057 18 201 6.4 14.5 0.00 0.00 0.00 87 1016.9
20260904053556 18 196 6.4 12.9 0.00 0.00 0.00 87 1017.0
20260904053102 18 216 6.4 12.9 0.00 0.00 0.00 87 1017.1
20260904052555 18 176 4.8 11.3 0.00 0.00 0.00 87 1017.0
20260904052055 18 177 3.2 9.7 0.00 0.00 0.00 87 1017.2
20260904051555 18 179 3.2 11.3 0.00 0.00 0.00 87 1017.1
20260904051055 18 182 4.8 11.3 0.00 0.00 0.00 87 1017.1
20260904050555 18 174 6.4 11.3 0.00 0.00 0.00 87 1017.1
20260904050055 18 182 4.8 12.9 0.00 0.00 0.00 87 1017.0
20260904045554 18 177 6.4 12.9 0.00 0.00 0.00 87 1017.0
20260904045054 18 159 4.8 12.9 0.00 0.00 0.00 87 1017.1
20260904044553 18 183 6.4 11.3 0.00 0.00 0.00 87 1017.2
20260904044056 18 180 4.8 11.3 0.00 0.00 0.00 87 1017.1
20260904043552 18 177 6.4 11.3 0.00 0.00 0.00 87 1017.2
20260904043104 18 190 4.8 14.5 0.00 0.00 0.00 87 1017.3
20260904042557 18 193 6.4 11.3 0.00 0.00 0.00 87 1017.3
20260904042052 18 197 4.8 11.3 0.00 0.00 0.00 87 1017.3
20260904041551 18 202 6.4 11.3 0.00 0.00 0.00 87 1017.3
20260904041051 18 190 4.8 11.3 0.00 0.00 0.00 86 1017.4
20260904040551 18 184 6.4 12.9 0.00 0.00 0.00 86 1017.3
20260904040050 18 170 4.8 12.9 0.00 0.00 0.00 86 1017.4
20260904035550 18 196 4.8 12.9 0.00 0.00 0.00 86 1017.5
20260904035049 18 207 4.8 12.9 0.00 0.00 0.00 86 1017.5
20260904034549 18 229 6.4 12.9 0.00 0.00 0.00 86 1017.6
20260904034049 18 228 6.4 11.3 0.00 0.00 0.00 86 1017.6
20260904033549 18 232 4.8 9.7 0.00 0.00 0.00 85 1017.6
20260904033050 18 219 4.8 9.7 0.00 0.00 0.00 85 1017.5
20260904032548 18 192 4.8 11.3 0.00 0.00 0.00 85 1017.5
20260904032047 18 213 6.4 11.3 0.00 0.00 0.00 86 1017.5
20260904031547 18 227 4.8 14.5 0.00 0.00 0.00 86 1017.7
20260904031048 18 226 4.8 14.5 0.00 0.00 0.00 86 1017.9
20260904030546 18 227 6.4 11.3 0.00 0.00 0.00 86 1017.9
20260904030046 18 225 6.4 12.9 0.00 0.00 0.00 86 1017.9
20260904025546 18 229 6.4 11.3 0.00 0.00 0.00 86 1018.0
20260904025045 18 221 4.8 11.3 0.00 0.00 0.00 86 1018.0
20260904024543 18 209 4.8 9.7 0.00 0.00 0.00 86 1018.1
20260904024044 18 229 6.4 14.5 0.00 0.00 0.00 86 1018.0
20260904023543 18 226 6.4 14.5 0.00 0.00 0.00 86 1018.2
20260904023044 18 207 6.4 14.5 0.00 0.00 0.00 86 1018.1
20260904022544 18 225 8.0 16.1 0.00 0.00 0.00 86 1018.2
20260904022044 18 234 6.4 14.5 0.00 0.00 0.00 86 1018.1
20260904021551 18 236 8.0 14.5 0.00 0.00 0.00 86 1018.2
20260904021043 18 211 8.0 12.9 0.00 0.00 0.00 86 1018.2
20260904020547 18 221 6.4 12.9 0.00 0.00 0.00 86 1018.1
20260904020043 18 213 6.4 12.9 0.00 0.00 0.00 86 1018.1
20260904015542 18 214 8.0 12.9 0.00 0.00 0.00 86 1018.1
20260904015042 18 213 4.8 11.3 0.00 0.00 0.00 85 1018.2
20260904014541 18 232 6.4 12.9 0.00 0.00 0.00 85 1018.2
20260904014041 18 230 6.4 9.7 0.00 0.00 0.00 86 1018.4
20260904013544 18 239 4.8 11.3 0.00 0.00 0.00 85 1018.3
20260904013141 18 240 6.4 11.3 0.00 0.00 0.00 85 1018.4
20260904012539 18 244 6.4 11.3 0.00 0.00 0.00 85 1018.4
20260904012039 18 223 4.8 12.9 0.00 0.00 0.00 85 1018.4
20260904011550 18 224 6.4 12.9 0.00 0.00 0.00 85 1018.5
20260904011039 18 245 6.4 12.9 0.00 0.00 0.00 85 1018.6
20260904010538 18 238 6.4 11.3 0.00 0.00 0.00 85 1018.6
20260904010038 18 215 6.4 9.7 0.00 0.00 0.00 85 1018.5
20260904005537 18 231 4.8 9.7 0.00 0.00 0.00 85 1018.4
20260904005037 18 221 3.2 9.7 0.00 0.00 0.00 85 1018.5
20260904004537 18 207 6.4 11.3 0.00 0.00 0.00 85 1018.6
20260904004036 18 232 4.8 11.3 0.00 0.00 0.00 85 1018.7
20260904003537 18 194 8.0 11.3 0.00 0.00 0.00 85 1018.7
20260904003036 18 207 4.8 8.0 0.00 0.00 0.00 85 1018.7
20260904002536 18 202 3.2 8.0 0.00 0.00 0.00 85 1018.7